This is the latest recevied weather packets stored in our database for station/object KD4MBW. If no packets are shown the sender has not sent any weather packets the latest 10 day(s).
| Time | Temp. | Humidity | Pressure | Rain* | Wind** | Luminosity | Snow |
|---|---|---|---|---|---|---|---|
| 1777709779 | 13.89° C | 99% | 1010 hPa | 7.87 mm | - | 0 W/m² | - |
| 1777709476 | 13.89° C | 99% | 1010.4 hPa | 13.72 mm | - | 0 W/m² | - |
| 1777709174 | 13.89° C | 99% | 1010.3 hPa | 16.76 mm | - | 0 W/m² | - |
| 1777708871 | 13.89° C | 99% | 1010.6 hPa | 15.49 mm | - | 0 W/m² | - |
| 1777708569 | 13.89° C | 99% | 1010 hPa | 14.99 mm | - | 0 W/m² | - |
| 1777708267 | 13.89° C | 99% | 1010.7 hPa | 18.54 mm | - | 0 W/m² | - |
| 1777707963 | 14.44° C | 99% | 1010.6 hPa | 14.99 mm | - | 0 W/m² | - |
| 1777707660 | 13.89° C | 99% | 1009.9 hPa | 6.1 mm | - | 0 W/m² | - |
| 1777707356 | 14.44° C | 99% | 1009.9 hPa | 1.78 mm | - | 0 W/m² | - |
| 1777707053 | 14.44° C | 99% | 1010 hPa | 0 mm | - | 0 W/m² | - |
| 1777706750 | 14.44° C | 99% | 1009.8 hPa | 4.32 mm | - | 0 W/m² | - |
| 1777706449 | 14.44° C | 99% | 1009.8 hPa | 8.89 mm | - | 0 W/m² | - |
| 1777706146 | 14.44° C | 99% | 1010.2 hPa | 6.6 mm | - | 0 W/m² | - |
| 1777705844 | 14.44° C | 99% | 1010.3 hPa | 1.78 mm | - | 0 W/m² | - |
| 1777705542 | 14.44° C | 99% | 1010.2 hPa | 0 mm | - | 0 W/m² | - |
| 1777705240 | 14.44° C | 99% | 1010.1 hPa | 0 mm | - | 0 W/m² | - |
| 1777704938 | 14.44° C | 99% | 1010.7 hPa | 0 mm | - | 0 W/m² | - |
| 1777704635 | 14.44° C | 99% | 1010.7 hPa | 0 mm | - | 0 W/m² | - |
| 1777704334 | 14.44° C | 99% | 1010.6 hPa | 0 mm | - | 0 W/m² | - |
| 1777704030 | 14.44° C | 99% | 1011 hPa | 0 mm | - | 0 W/m² | - |
| 1777703728 | 14.44° C | 99% | 1010.9 hPa | 0 mm | - | 0 W/m² | - |
| 1777703426 | 13.89° C | 99% | 1010.8 hPa | 0 mm | - | 0 W/m² | - |
| 1777703123 | 13.89° C | 99% | 1010.7 hPa | 1.27 mm | - | 0 W/m² | - |
| 1777702821 | 13.89° C | 99% | 1010.5 hPa | 1.27 mm | - | 0 W/m² | - |
| 1777702519 | 13.89° C | 99% | 1010.7 hPa | 0 mm | - | 0 W/m² | - |
* Rain latest hour (hover to see other rain measurements)
** Current wind speed in m/s (hover to see current wind gust speed)